Wind_Speed
34 32 31 30 30 30 29 29 28 28 27 26 26 25 24 23 23 22 22 23 23 23 23 23 23 23 23 24 24 24 24 25 26 26 26 26 27 27 27 27 27 27 28
33 32 32 32 31 31 31 30 30 29 29 28 28 27 26 26 25 24 24 24 25 25 25 25 25 25 25 26 26 26 26 27 27 28 28 28 29 29 29 29 29 30 30
34 33 33 33 32 31 30 30 30 30 30 30 29 29 28 27 27 26 26 26 26 26 27 26 27 27 27 28 28 28 28 28 29 29 30 30 31 31 31 31 32 32 32
34 34 32 32 32 31 31 30 31 31 31 31 31 31 30 30 29 29 28 28 28 28 29 29 28 29 29 29 29 29 30 30 31 31 31 32 32 32 33 34 34 34 34
33 34 34 33 32 32 32 33 33 31 31 32 32 31 31 31 31 30 30 30 30 29 30 30 30 31 31 31 31 32 32 33 33 33 33 33 34 34 35 35 36 36 36
34 34 34 34 33 33 33 34 34 34 33 32 32 32 32 31 32 32 32 32 32 32 32 32 33 33 33 33 34 34 34 35 35 35 36 36 36 37 37 38 38 38 38
36 35 34 35 35 34 34 34 34 34 35 34 33 33 32 32 31 32 33 33 34 34 34 34 35 35 35 36 36 36 36 37 37 37 38 38 38 39 40 40 40 41 41
37 37 36 36 36 36 36 35 35 35 35 35 35 34 34 34 34 34 34 35 35 36 36 36 36 37 37 38 38 39 39 39 40 40 40 41 41 42 42 43 43 43 43
37 38 38 37 36 37 38 37 36 36 36 36 36 36 36 36 36 36 36 37 37 37 37 38 38 39 39 40 40 41 42 42 42 42 43 43 44 44 45 45 45 45 45
35 37 38 37 37 36 37 38 38 38 37 37 38 38 38 38 39 38 38 39 39 39 39 39 40 40 42 42 43 44 44 45 44 45 45 46 46 46 47 47 47 47 47
32 34 36 37 37 37 37 38 38 39 39 39 40 39 40 40 41 41 41 41 41 41 41 42 42 43 43 44 44 45 46 46 46 47 47 48 48 48 48 49 49 49 49
33 33 34 36 37 37 37 37 38 39 39 40 41 41 42 42 42 43 43 43 43 43 43 44 45 45 45 45 46 46 46 47 47 48 48 49 50 50 50 50 50 50 49
34 34 34 35 36 37 38 38 39 39 40 40 42 43 43 44 44 44 44 45 45 45 46 46 47 47 47 47 47 48 48 49 49 49 50 50 51 51 52 52 51 51 50
33 34 35 35 37 38 39 40 40 41 41 42 42 43 44 44 45 46 46 46 46 47 47 48 48 48 49 49 49 49 50 51 50 51 51 52 53 53 53 53 52 52 51
33 34 35 37 37 38 40 40 40 41 42 43 43 44 45 45 45 47 48 48 49 50 49 50 50 50 50 50 50 51 52 52 52 52 53 54 54 54 53 53 53 53 53
34 35 36 37 38 39 40 41 42 43 44 45 46 46 46 47 47 48 49 50 51 51 51 50 51 52 52 52 52 53 54 54 54 54 54 55 55 55 55 55 55 54 55
35 36 37 39 40 41 42 43 43 44 45 46 46 47 48 48 49 50 50 50 51 51 52 51 52 52 52 53 54 54 54 54 54 54 55 55 56 56 56 55 55 55 56
36 37 38 39 41 42 43 44 44 45 46 46 47 48 48 49 49 49 50 51 51 52 52 52 52 52 53 53 53 54 54 55 55 55 55 55 56 56 56 55 55 56 56
37 39 40 41 42 42 43 44 44 45 45 46 47 47 48 49 50 50 51 51 52 52 52 52 52 52 53 53 53 54 54 55 55 55 55 55 55 56 56 55 55 55 55
38 38 39 41 43 43 43 44 44 44 44 45 46 47 48 48 49 50 51 51 52 53 53 52 52 52 52 53 54 54 53 54 55 55 55 55 54 54 54 54 54 54 54
39 40 40 41 41 42 43 44 44 44 44 45 46 47 48 49 49 50 51 51 51 52 53 52 52 52 52 53 53 53 54 54 54 54 54 55 54 53 53 53 53 53 53
39 39 40 40 41 42 43 44 45 45 45 46 47 47 48 49 49 50 50 50 51 52 52 52 52 52 52 53 53 53 53 53 53 53 53 52 53 52 52 52 52 52 51
38 39 39 39 39 40 41 42 43 44 45 45 46 48 48 49 49 48 49 50 50 50 51 52 52 52 52 52 53 53 53 52 52 52 51 51 52 52 52 51 51 51 50
37 38 38 39 40 40 42 42 44 44 45 46 46 47 48 48 48 48 49 49 49 50 50 50 51 51 51 52 53 53 52 52 52 52 52 51 51 51 51 51 51 50 49
37 39 40 40 40 41 42 43 45 45 46 46 45 45 46 46 47 47 48 49 49 50 50 50 50 50 51 51 52 52 52 51 51 51 52 51 50 50 49 50 49 49 48
38 39 40 40 41 41 42 43 44 44 44 44 44 44 45 45 45 46 47 47 48 48 48 48 48 49 50 50 50 51 51 51 51 50 51 51 50 49 48 48 48 48 47
Wind_Direction
240 240 240 242 243 245 247 248 250 251 253 254 256 257 260 263 265 267 269 271 272 274 275 276 278 280 282 283 284 286 287 287 287 288 288 288 289 289 289 289 291 292 293
240 241 241 241 243 245 247 249 250 251 253 255 257 258 260 263 265 267 270 271 272 274 275 276 278 280 282 284 284 285 286 287 288 289 289 288 288 288 288 288 289 290 291
241 242 242 242 242 246 248 250 251 252 254 255 257 259 260 262 264 265 268 271 272 273 274 277 279 279 281 282 283 284 285 286 288 289 289 288 288 288 288 288 289 290 290
242 241 240 242 243 246 247 249 251 252 255 256 257 258 260 261 264 266 268 270 272 274 274 275 277 278 280 281 282 283 285 286 287 288 288 288 288 288 288 288 289 289 290
243 243 242 243 244 247 248 249 250 253 256 257 258 259 260 261 263 266 267 269 272 274 275 275 276 278 279 280 282 283 284 286 287 288 288 288 288 289 288 289 289 289 289
244 244 244 245 246 248 250 251 252 253 256 256 258 260 262 263 264 265 267 269 272 274 276 276 277 278 279 280 282 283 285 285 286 287 288 288 288 288 288 288 288 289 289
244 245 245 247 247 249 252 253 254 255 257 258 260 261 262 263 265 267 268 271 273 275 277 278 279 279 280 280 282 283 284 285 286 286 286 287 287 287 288 288 288 288 288
245 245 245 247 248 249 252 254 255 257 259 260 262 263 264 265 267 269 270 272 274 276 278 280 281 280 280 281 282 283 284 284 285 285 285 285 286 287 287 287 287 287 287
245 245 247 248 250 252 253 255 257 259 261 262 264 265 266 267 270 271 273 274 276 278 280 280 281 280 280 281 281 282 283 284 284 284 284 285 286 286 286 286 286 286 286
248 248 248 251 252 254 256 257 258 260 261 262 264 266 268 269 270 271 273 275 276 277 279 280 280 280 280 280 280 281 282 283 283 283 283 284 285 286 286 285 285 285 286
252 253 252 252 253 255 257 258 258 259 261 263 265 267 268 269 271 272 274 275 276 276 278 279 279 280 280 280 280 281 282 283 282 283 283 284 284 285 285 285 285 285 285
255 257 255 254 254 255 257 259 259 261 262 264 265 266 268 270 271 272 274 275 275 276 277 278 278 280 281 281 281 281 282 283 282 282 282 282 283 283 284 284 285 285 285
256 257 257 256 255 255 258 261 262 263 264 266 267 268 269 269 270 271 272 273 274 275 276 278 279 280 281 281 280 280 281 282 282 282 282 282 282 283 284 284 285 285 285
257 259 259 257 256 256 259 262 263 264 265 267 268 269 269 270 270 271 272 273 274 275 277 278 280 281 281 281 280 280 281 281 281 281 281 282 282 283 284 285 284 284 284
260 261 261 261 260 260 262 264 266 267 268 268 268 269 269 270 271 271 272 273 275 276 277 278 279 281 281 281 281 280 280 280 281 281 281 281 282 283 284 284 284 284 283
262 262 262 263 263 263 264 266 267 268 269 269 269 269 270 270 272 273 274 275 276 277 278 279 279 280 281 281 281 281 281 280 281 281 282 283 283 283 284 284 283 283 282
265 264 264 264 265 266 265 266 268 269 270 270 269 270 271 272 273 274 275 275 276 278 279 279 280 281 280 281 281 282 282 281 281 283 283 284 284 284 284 284 284 283 282
266 266 265 266 267 267 267 267 268 270 271 271 271 271 272 272 273 274 275 276 277 278 279 280 280 281 281 281 281 282 282 282 283 283 283 284 284 284 284 283 284 283 283
267 268 267 267 268 269 269 269 270 272 272 272 272 273 273 274 274 275 276 277 278 279 280 281 280 281 281 281 282 282 284 284 284 283 284 284 284 284 284 284 284 283 283
270 269 270 270 271 270 270 270 271 272 273 273 274 274 275 275 276 276 277 278 279 280 280 281 281 281 281 282 282 283 283 284 283 283 284 284 284 285 285 284 284 283 283
271 272 272 273 272 271 272 272 273 274 275 276 276 276 276 277 277 277 277 278 279 280 280 281 281 281 282 283 283 283 283 283 283 284 284 284 284 285 286 285 285 284 284
274 275 275 274 273 273 274 274 275 275 277 278 278 278 278 278 278 278 278 279 280 280 281 282 281 282 283 283 283 283 284 283 283 283 283 283 283 284 285 285 285 285 285
278 277 276 275 275 275 276 276 277 278 279 279 280 280 279 279 279 279 279 280 281 282 283 283 282 283 283 284 284 284 284 284 283 283 282 283 284 285 285 285 285 284 284
278 277 275 276 276 276 277 278 278 279 280 280 281 282 280 280 279 279 279 280 281 282 284 284 284 284 283 284 284 284 285 284 283 282 282 283 283 284 285 284 284 284 285
280 279 277 277 277 277 278 279 280 280 281 282 282 282 282 282 281 281 281 281 282 282 283 284 284 284 284 284 285 284 284 284 283 283 284 284 283 283 284 284 284 284 284
282 281 280 279 279 278 279 280 282 282 282 282 282 283 283 283 282 282 283 283 283 282 282 282 283 284 285 286 286 286 285 285 284 284 284 284 284 283 283 283 284 284 285
Height
5800 5803 5806 5808 5810 5813 5815 5817 5819 5820 5821 5823 5824 5825 5826 5827 5827 5827 5828 5828 5828 5828 5828 5827 5827 5827 5826 5825 5825 5824 5823 5823 5822 5821 5820 5819 5818 5817 5816 5815 5814 5813 5811
5794 5796 5799 5801 5804 5806 5809 5811 5813 5814 5816 5817 5818 5819 5820 5821 5822 5822 5822 5822 5822 5822 5822 5822 5821 5821 5820 5820 5819 5819 5818 5817 5816 5815 5814 5813 5812 5811 5810 5809 5808 5807 5805
5787 5790 5792 5795 5797 5800 5802 5805 5806 5808 5810 5811 5812 5813 5814 5815 5816 5816 5816 5817 5817 5816 5816 5816 5816 5815 5814 5814 5813 5813 5812 5811 5810 5809 5808 5807 5806 5805 5804 5802 5801 5800 5799
5780 5782 5785 5788 5791 5793 5795 5798 5800 5802 5803 5805 5806 5807 5808 5809 5810 5810 5810 5810 5810 5810 5810 5809 5809 5809 5808 5807 5807 5806 5805 5804 5803 5802 5801 5800 5799 5798 5796 5795 5794 5792 5791
5773 5776 5778 5781 5784 5786 5788 5791 5793 5795 5796 5798 5799 5800 5801 5802 5803 5803 5803 5804 5804 5803 5803 5803 5802 5802 5801 5801 5800 5799 5798 5797 5796 5795 5794 5793 5791 5790 5789 5787 5786 5784 5783
5766 5769 5771 5774 5777 5779 5782 5784 5786 5787 5789 5791 5792 5793 5794 5795 5795 5796 5796 5796 5796 5796 5796 5795 5795 5794 5794 5793 5792 5791 5790 5789 5788 5787 5786 5785 5783 5782 5780 5779 5777 5776 5774
5759 5761 5764 5767 5770 5772 5774 5776 5778 5780 5782 5783 5784 5786 5787 5787 5788 5789 5789 5789 5789 5789 5788 5788 5787 5787 5786 5785 5784 5783 5782 5781 5780 5779 5777 5776 5775 5773 5771 5770 5768 5767 5765
5752 5754 5757 5759 5762 5765 5767 5769 5770 5772 5774 5775 5776 5777 5778 5780 5780 5781 5781 5781 5781 5780 5780 5779 5778 5778 5777 5776 5775 5774 5773 5772 5770 5769 5768 5766 5765 5763 5762 5760 5758 5756 5755
5744 5747 5749 5752 5754 5756 5758 5760 5762 5764 5765 5766 5767 5769 5770 5771 5771 5772 5772 5772 5772 5771 5771 5770 5769 5768 5768 5767 5766 5765 5763 5762 5761 5759 5758 5756 5754 5753 5751 5749 5747 5746 5744
5737 5739 5741 5744 5746 5748 5749 5751 5753 5755 5756 5757 5758 5759 5761 5762 5762 5763 5763 5762 5762 5762 5761 5761 5760 5758 5757 5757 5756 5754 5753 5751 5750 5748 5747 5745 5743 5741 5739 5738 5736 5734 5732
5729 5731 5733 5735 5737 5739 5741 5742 5744 5745 5747 5748 5749 5750 5751 5751 5752 5752 5753 5753 5752 5752 5751 5750 5749 5748 5747 5746 5745 5743 5742 5740 5738 5737 5735 5733 5731 5729 5727 5725 5723 5721 5720
5721 5723 5724 5726 5728 5730 5732 5733 5734 5736 5737 5738 5739 5740 5740 5741 5741 5741 5742 5742 5742 5741 5740 5739 5738 5737 5736 5734 5733 5731 5730 5728 5726 5725 5722 5721 5719 5717 5715 5712 5710 5708 5706
5713 5714 5716 5718 5719 5721 5723 5724 5725 5726 5727 5728 5729 5729 5729 5730 5730 5730 5730 5730 5730 5730 5729 5728 5727 5725 5724 5722 5721 5719 5717 5716 5714 5712 5710 5708 5706 5704 5701 5699 5697 5695 5693
5705 5706 5707 5709 5710 5712 5713 5714 5715 5716 5717 5717 5718 5718 5718 5718 5718 5718 5718 5718 5718 5718 5717 5716 5714 5713 5711 5710 5708 5706 5704 5702 5700 5698 5696 5694 5692 5690 5687 5685 5683 5681 5679
5696 5698 5699 5700 5701 5702 5703 5704 5705 5705 5706 5706 5706 5706 5706 5706 5706 5706 5705 5705 5705 5705 5705 5704 5702 5700 5698 5696 5695 5693 5691 5689 5687 5684 5682 5680 5677 5675 5673 5670 5668 5666 5665
5688 5689 5690 5691 5692 5692 5693 5693 5694 5694 5694 5694 5694 5694 5694 5694 5694 5693 5693 5692 5691 5691 5691 5691 5689 5687 5685 5683 5681 5679 5677 5675 5673 5670 5668 5665 5662 5660 5658 5656 5653 5651 5649
5679 5680 5681 5681 5681 5682 5682 5682 5682 5682 5682 5682 5682 5682 5682 5681 5681 5680 5679 5678 5678 5676 5676 5676 5674 5673 5670 5668 5667 5664 5662 5660 5658 5655 5653 5650 5647 5645 5642 5640 5638 5635 5633
5670 5670 5670 5671 5670 5671 5670 5670 5670 5670 5670 5669 5669 5669 5668 5667 5667 5667 5666 5665 5664 5662 5661 5661 5660 5658 5656 5654 5652 5650 5647 5645 5642 5640 5637 5635 5632 5629 5627 5624 5622 5619 5617
5660 5660 5660 5659 5659 5658 5658 5658 5658 5658 5657 5657 5656 5655 5655 5654 5653 5653 5651 5650 5649 5647 5646 5645 5645 5643 5641 5639 5637 5635 5632 5630 5627 5624 5622 5619 5616 5613 5611 5608 5605 5603 5600
5649 5649 5648 5648 5647 5646 5646 5645 5645 5645 5644 5643 5642 5641 5640 5639 5639 5638 5637 5636 5634 5633 5631 5630 5629 5628 5626 5624 5622 5620 5618 5614 5612 5609 5606 5603 5601 5598 5595 5592 5590 5587 5584
5638 5637 5636 5636 5635 5634 5633 5633 5632 5632 5631 5630 5629 5628 5626 5625 5624 5623 5622 5621 5619 5617 5616 5615 5613 5612 5610 5608 5607 5604 5602 5600 5597 5594 5591 5588 5586 5583 5579 5577 5574 5571 5568
5626 5625 5625 5624 5623 5622 5621 5620 5619 5619 5618 5617 5615 5614 5612 5611 5609 5608 5607 5606 5604 5602 5601 5599 5598 5596 5595 5593 5591 5589 5586 5585 5582 5580 5577 5573 5570 5568 5564 5562 5558 5555 5552
5615 5614 5613 5612 5611 5610 5609 5608 5607 5606 5605 5603 5601 5600 5598 5596 5595 5593 5592 5591 5589 5587 5586 5584 5583 5581 5579 5578 5576 5574 5571 5569 5566 5563 5561 5559 5555 5553 5549 5546 5543 5540 5538
5604 5603 5602 5601 5600 5598 5597 5595 5594 5593 5592 5590 5588 5585 5584 5582 5580 5579 5578 5577 5575 5573 5571 5569 5568 5566 5564 5561 5559 5557 5555 5553 5551 5547 5545 5544 5541 5538 5535 5531 5528 5525 5522
5593 5591 5590 5589 5588 5586 5585 5583 5581 5580 5579 5577 5574 5572 5570 5568 5567 5565 5564 5563 5561 5558 5556 5554 5552 5550 5548 5546 5543 5541 5539 5537 5536 5533 5529 5528 5526 5524 5521 5517 5513 5510 5507
5581 5580 5579 5577 5576 5574 5572 5571 5569 5567 5566 5564 5562 5559 5557 5555 5553 5551 5550 5548 5546 5544 5542 5540 5538 5536 5533 5531 5528 5526 5524 5522 5520 5518 5515 5513 5510 5508 5507 5504 5500 5496 5493